Wind_Speed
15 21 14 18 19 25 22 26 27 27 29 32 35 36 35 33 31 21 13 10 10 7 4 2 3 16 19 21 15 17 17 17 16 21 22 22 22 18 19 16 17 16 17 17 17 16 17 17 17
13 18 12 13 14 18 20 23 24 22 26 27 31 35 38 35 34 29 17 12 9 8 4 3 5 8 14 20 17 18 17 14 14 18 20 24 21 17 16 16 16 15 15 16 16 17 16 17 17
13 15 9 9 4 6 16 21 25 25 24 24 31 34 38 35 34 30 27 18 10 7 5 4 6 4 15 19 18 19 19 11 12 21 27 25 19 16 15 15 15 15 14 15 16 16 16 17 17
14 14 12 8 7 6 11 15 22 24 26 27 27 29 34 36 33 31 26 24 14 8 5 3 5 12 13 23 21 17 12 11 21 27 25 16 15 11 14 14 15 14 15 16 15 16 16 16 16
13 15 14 15 6 14 17 17 15 20 22 24 28 29 30 33 34 33 29 26 21 7 3 5 6 11 17 19 25 25 26 27 24 23 22 18 20 13 12 13 15 16 16 16 15 14 14 15 15
13 13 15 17 16 11 5 11 13 14 17 20 23 26 27 29 31 32 29 27 24 13 6 7 7 10 13 16 19 22 24 24 22 19 20 18 14 12 11 13 14 14 16 16 14 14 13 14 14
15 17 16 14 7 12 9 7 11 9 13 16 22 26 25 25 28 29 29 27 27 15 10 7 9 10 12 11 18 19 23 24 23 20 16 15 18 13 11 12 12 13 14 15 14 13 13 12 12
16 16 16 16 14 8 7 3 7 6 12 11 17 19 19 22 24 25 27 28 28 22 11 11 8 9 10 13 15 18 19 15 20 17 12 13 10 10 11 12 12 12 13 14 14 13 13 12 12
15 15 13 14 13 10 3 5 3 7 6 8 10 8 11 16 21 23 27 27 27 26 17 9 8 7 9 10 13 16 17 16 21 17 15 16 16 15 15 13 12 13 12 13 13 13 14 13 12
12 12 11 10 10 10 10 9 4 4 5 5 5 12 7 9 18 21 24 25 27 27 21 12 9 7 7 10 10 12 16 18 18 16 15 16 15 14 14 13 13 12 12 12 12 13 12 12 11
9 10 12 12 11 10 9 10 7 10 12 7 6 3 5 11 15 18 20 21 24 25 25 20 12 8 7 6 9 10 11 16 19 17 15 13 12 13 13 13 13 14 14 13 13 14 13 12 10
8 8 9 13 12 11 9 9 10 12 14 15 10 8 7 9 9 11 16 18 17 20 22 19 18 11 8 7 7 10 11 14 18 18 22 18 14 13 12 12 12 13 14 14 13 13 13 13 12
7 8 6 8 11 12 12 11 9 11 14 14 14 7 4 10 11 9 10 14 15 14 17 21 20 15 11 7 3 7 11 14 15 17 17 20 17 17 15 15 14 13 12 12 13 13 13 12 13
11 11 9 8 7 8 10 13 13 12 12 12 14 8 5 2 6 11 10 8 9 10 12 14 17 18 16 9 5 2 4 9 15 18 19 20 20 19 17 17 16 15 14 12 12 13 14 13 13
15 15 14 11 8 7 9 11 9 9 9 10 12 9 3 8 4 8 8 4 3 5 7 8 10 13 17 16 9 3 1 3 14 14 19 21 22 21 20 19 17 16 16 16 15 15 14 16 16
18 16 14 10 7 5 9 14 14 9 7 7 7 6 9 7 10 7 6 3 11 9 4 6 9 11 13 15 16 9 5 3 3 6 18 21 23 23 20 19 19 19 18 18 18 18 18 19 19
17 17 13 10 11 11 9 13 20 19 15 12 9 8 9 11 12 11 12 9 9 11 8 5 5 7 8 10 12 13 9 6 1 1 5 6 21 21 23 22 20 18 19 20 20 21 21 21 21
15 14 14 12 14 15 16 13 14 17 21 18 12 11 11 15 16 16 18 19 23 17 14 6 4 3 3 4 6 9 10 8 3 3 1 1 6 21 19 18 18 18 19 22 22 21 21 22 22
14 13 12 14 16 17 18 17 18 17 14 16 16 11 12 16 17 20 21 31 17 12 17 14 9 7 6 4 2 1 4 7 7 2 2 3 2 8 14 13 12 15 18 20 21 22 24 24 25
12 12 13 13 13 13 16 15 15 14 11 10 13 14 12 16 19 21 26 26 29 19 20 19 18 16 12 10 11 7 4 5 5 5 2 1 3 7 10 10 9 10 11 14 17 20 22 24 25
10 12 13 13 10 14 16 16 12 9 12 13 15 15 16 16 17 24 26 28 29 25 24 27 26 25 23 17 16 13 10 8 7 4 1 1 1 3 6 8 9 8 9 11 13 17 20 22 25
14 15 15 16 14 15 17 14 14 13 15 13 14 14 16 16 16 19 27 35 35 32 26 30 29 28 29 26 22 20 17 16 13 11 7 5 2 2 2 4 7 8 9 11 13 16 21 22 24
15 16 17 17 14 14 18 18 16 17 17 16 15 17 18 20 24 23 23 29 32 28 33 33 34 32 35 29 30 24 23 21 20 17 14 12 9 5 4 4 5 7 9 11 14 18 21 24 24
17 17 20 19 18 17 19 20 13 18 17 18 17 17 19 19 22 25 26 28 30 37 39 41 41 40 40 36 33 31 25 26 24 20 21 18 15 10 9 7 7 8 9 11 13 15 17 21 24
19 20 24 24 24 23 24 25 20 19 16 15 17 19 20 21 24 28 33 34 35 33 35 38 45 48 48 46 41 38 34 31 29 27 27 25 20 15 14 12 10 8 9 12 14 16 20 27 30
24 24 26 31 29 27 27 28 25 23 22 19 19 18 20 24 27 28 28 30 33 35 36 39 39 40 49 56 49 43 40 34 31 34 32 29 24 20 19 15 15 14 12 12 14 16 21 21 18
27 29 32 34 34 32 32 30 29 27 25 25 23 21 25 29 29 30 29 27 31 30 36 38 41 39 44 51 53 50 49 41 36 34 37 35 31 24 22 21 18 19 17 16 15 16 15 19 15
28 31 33 36 37 38 37 34 32 29 28 27 27 27 29 32 31 31 29 30 28 29 27 26 32 36 42 55 60 57 55 51 45 38 39 39 38 32 29 26 22 22 22 21 18 16 16 15 11
29 31 33 35 36 38 38 36 27 29 32 28 28 29 27 30 32 31 30 35 31 30 30 29 27 30 30 58 61 63 60 55 50 45 39 42 43 40 34 32 28 25 26 28 23 19 16 15 14
29 30 32 34 37 36 36 38 32 32 32 31 28 30 29 29 32 33 30 32 33 34 35 34 27 27 25 47 58 66 60 59 56 50 43 44 50 45 40 38 36 33 28 29 26 23 19 17 17
Wind_Direction
24 26 91 70 66 69 76 74 67 69 65 60 53 49 51 47 44 44 52 39 40 30 52 80 142 175 190 185 196 185 186 187 170 168 165 161 161 162 146 152 149 145 142 138 139 134 135 132 135
26 45 87 33 39 62 64 65 60 64 61 67 61 54 50 43 45 47 52 52 37 38 44 79 81 161 182 185 189 179 193 182 180 186 181 162 164 156 155 159 153 148 148 141 139 140 140 143 142
29 26 20 346 132 57 63 56 49 50 46 62 60 58 51 44 42 46 46 50 44 39 53 71 85 140 190 184 175 190 175 174 204 188 173 169 155 162 160 158 158 156 155 148 142 145 148 149 148
25 23 17 27 139 75 57 60 58 56 55 48 59 60 55 45 40 43 46 40 47 40 58 92 94 84 102 159 166 170 169 179 191 175 146 148 152 161 160 160 161 158 161 153 149 148 154 155 149
23 18 12 53 83 122 64 90 72 77 67 65 60 58 52 46 39 38 39 38 31 65 85 121 118 91 89 109 132 148 137 140 136 141 153 153 159 169 155 157 154 160 161 161 156 151 157 157 155
26 27 39 40 87 109 112 66 81 78 86 81 68 58 58 52 41 35 34 31 26 40 131 137 142 130 111 103 130 134 132 139 140 145 153 157 170 150 161 160 160 159 161 163 159 158 159 163 160
33 31 32 42 86 96 104 82 74 86 68 62 58 46 45 58 51 41 34 32 27 38 114 139 143 147 141 131 125 149 144 146 149 148 148 158 167 168 161 163 160 159 160 167 162 165 169 171 166
42 41 38 41 41 55 81 50 23 61 48 42 34 59 45 57 54 51 40 36 35 46 86 127 127 151 147 142 142 140 148 151 167 138 146 161 165 167 176 165 166 155 159 169 174 172 177 176 179
36 34 28 35 42 44 27 15 62 8 42 73 11 45 44 45 60 52 50 41 42 51 65 99 109 133 156 151 147 152 152 155 154 164 166 167 171 173 177 172 163 155 163 167 177 181 186 183 189
31 27 20 19 22 23 16 359 2 355 341 345 25 79 61 53 65 65 59 50 47 52 65 71 84 96 132 163 164 158 166 168 171 183 182 175 170 167 172 171 165 161 164 174 176 184 193 196 194
11 7 354 359 1 4 6 354 337 327 333 332 342 6 108 48 49 67 71 61 52 51 62 69 75 87 96 131 172 175 174 180 182 187 186 195 195 184 180 173 171 174 174 176 181 187 188 186 188
344 345 334 334 336 337 350 340 333 327 329 327 320 328 40 91 95 78 76 74 51 51 57 67 67 68 81 111 147 184 194 192 195 203 206 194 194 199 198 192 187 184 183 186 185 187 195 190 192
337 332 329 319 318 328 327 321 319 321 331 322 321 326 18 100 82 114 84 76 67 54 57 59 59 64 67 67 116 166 198 206 209 206 206 203 209 207 210 209 204 201 195 197 195 191 199 199 200
332 327 328 321 302 298 319 298 311 315 323 327 330 312 289 217 82 128 98 72 77 66 68 62 59 58 57 74 81 143 186 217 223 219 213 211 209 209 216 219 216 215 203 201 207 205 200 201 210
325 322 323 323 315 325 316 287 289 301 315 322 338 320 305 265 173 158 129 120 183 102 67 63 64 60 61 60 71 109 197 257 219 228 228 222 218 213 215 218 220 223 217 216 212 210 211 209 211
317 316 320 327 328 307 291 293 295 281 291 295 301 315 252 261 210 237 186 112 169 161 137 81 70 71 62 57 49 67 80 98 173 236 232 221 223 222 220 219 220 222 221 217 219 217 215 217 216
309 314 321 321 320 311 303 295 298 320 337 1 333 295 274 237 219 239 233 192 193 193 181 157 101 71 57 45 43 39 65 79 97 21 47 221 227 224 225 228 228 231 234 226 225 223 223 225 224
312 314 318 319 321 318 313 303 299 304 316 325 322 301 273 256 233 229 246 229 204 187 180 189 155 127 74 26 39 33 40 55 73 114 245 331 211 220 219 225 229 230 233 235 236 236 236 236 234
308 312 313 319 315 308 304 307 309 309 300 302 301 291 266 265 253 230 247 264 215 207 186 180 188 205 169 211 256 65 10 21 30 65 106 179 114 157 204 223 233 238 242 247 247 243 240 239 239
307 308 306 308 305 296 292 290 296 294 296 297 301 293 273 257 248 242 237 258 261 275 192 199 200 202 213 200 215 206 228 314 342 16 45 122 156 184 191 202 207 219 230 241 243 243 241 240 240
295 285 290 300 294 290 290 298 297 301 310 307 301 299 295 280 266 246 251 253 262 265 241 214 214 209 212 213 215 211 210 239 265 265 161 136 158 198 195 195 200 216 238 242 243 246 245 241 243
287 286 289 294 298 292 298 302 309 307 304 296 292 287 283 277 269 258 253 253 255 258 249 233 235 223 223 220 224 210 216 213 239 240 237 228 192 210 226 228 224 226 245 252 251 249 247 246 244
287 289 291 290 289 293 298 302 306 302 301 299 292 283 277 275 275 271 258 250 248 233 249 238 230 241 244 223 232 228 210 228 221 237 240 235 232 225 245 258 255 259 261 265 263 263 260 253 249
291 291 293 293 301 310 302 304 312 298 295 289 288 284 276 270 263 261 252 250 246 242 241 236 236 234 236 231 233 236 226 234 238 233 235 236 233 232 243 260 280 281 283 282 285 281 265 258 251
294 297 301 303 304 307 304 302 305 302 295 289 283 274 269 266 263 257 261 257 250 248 252 245 240 237 233 230 225 233 231 235 246 237 240 233 239 231 240 245 255 279 286 294 300 289 278 270 267
294 296 297 300 303 301 299 302 306 309 306 302 299 288 278 271 268 267 265 264 260 257 253 253 249 248 233 237 217 228 230 233 240 241 239 240 232 240 242 252 258 263 271 285 293 302 299 282 267
286 288 293 295 294 297 300 305 309 309 307 308 306 295 282 278 275 275 274 268 252 267 253 245 251 252 235 229 234 228 230 232 242 240 237 238 238 234 241 250 261 267 274 279 290 305 303 310 340
284 289 292 293 299 304 308 308 310 307 307 305 298 295 287 282 280 280 277 273 260 261 255 256 261 273 238 227 223 225 229 230 234 237 239 234 241 236 239 242 252 267 271 274 280 293 307 295 315
287 285 288 292 296 299 303 303 303 298 295 292 291 289 286 281 280 279 274 271 263 262 255 255 264 272 246 220 221 222 227 231 236 237 240 241 238 239 239 245 247 253 269 276 279 279 287 300 300
285 285 289 296 299 299 299 300 306 297 296 294 293 290 289 281 281 283 278 269 263 257 255 253 259 270 259 224 221 219 223 228 237 238 238 242 244 242 239 242 246 249 253 268 271 273 281 293 299
Height
5901 5902 5900 5899 5901 5896 5895 5892 5889 5888 5886 5883 5882 5879 5877 5874 5873 5875 5872 5872 5872 5872 5871 5869 5869 5870 5873 5875 5878 5881 5884 5888 5891 5894 5897 5900 5903 5905 5907 5910 5913 5915 5917 5918 5920 5921 5923 5925 5928
5902 5903 5902 5901 5901 5898 5898 5895 5894 5892 5889 5886 5884 5882 5879 5878 5875 5875 5875 5874 5874 5873 5873 5871 5868 5868 5871 5874 5877 5879 5884 5886 5890 5894 5897 5900 5904 5905 5908 5911 5914 5915 5918 5919 5921 5923 5925 5928 5930
5902 5903 5903 5901 5900 5900 5900 5899 5898 5894 5892 5888 5884 5883 5881 5881 5879 5878 5877 5877 5876 5875 5874 5873 5871 5870 5870 5873 5876 5879 5884 5887 5890 5894 5896 5900 5903 5906 5909 5912 5915 5917 5919 5921 5922 5925 5928 5930 5931
5902 5902 5902 5899 5899 5899 5900 5899 5898 5896 5895 5891 5888 5886 5884 5882 5882 5880 5879 5879 5878 5877 5876 5875 5874 5872 5870 5871 5874 5878 5883 5886 5890 5893 5897 5902 5905 5908 5910 5913 5916 5918 5921 5922 5924 5927 5930 5932 5932
5902 5901 5899 5899 5899 5900 5900 5900 5899 5895 5895 5893 5891 5889 5887 5884 5883 5881 5880 5879 5879 5877 5877 5878 5877 5874 5873 5871 5876 5879 5883 5887 5892 5894 5898 5903 5907 5909 5911 5914 5917 5918 5921 5924 5926 5927 5931 5932 5934
5903 5903 5902 5901 5898 5899 5899 5899 5898 5897 5895 5892 5891 5890 5889 5887 5884 5882 5881 5878 5877 5876 5877 5878 5879 5879 5877 5876 5878 5881 5885 5888 5892 5895 5899 5902 5906 5908 5911 5915 5916 5919 5921 5924 5927 5929 5932 5933 5935
5904 5904 5902 5902 5902 5901 5901 5901 5898 5897 5896 5895 5892 5892 5892 5889 5886 5883 5882 5879 5875 5873 5876 5879 5881 5882 5882 5882 5883 5884 5887 5890 5893 5895 5898 5903 5906 5909 5912 5914 5916 5919 5921 5924 5927 5929 5932 5935 5936
5906 5906 5903 5902 5902 5904 5903 5902 5901 5899 5897 5895 5894 5892 5894 5891 5889 5886 5884 5881 5876 5873 5875 5878 5880 5883 5884 5885 5886 5888 5890 5891 5893 5896 5900 5903 5907 5908 5911 5914 5916 5918 5920 5924 5927 5929 5932 5934 5937
5907 5907 5905 5904 5902 5903 5904 5903 5901 5899 5898 5897 5896 5896 5896 5894 5892 5890 5886 5885 5881 5876 5876 5879 5880 5883 5885 5887 5888 5890 5892 5894 5895 5898 5901 5904 5906 5909 5912 5913 5916 5917 5920 5923 5926 5928 5931 5933 5936
5908 5907 5906 5905 5903 5903 5902 5903 5901 5899 5898 5897 5897 5897 5896 5896 5893 5893 5890 5889 5887 5882 5879 5881 5882 5884 5886 5887 5889 5891 5893 5895 5898 5899 5901 5903 5905 5908 5910 5913 5916 5917 5920 5922 5925 5927 5930 5933 5935
5907 5906 5905 5904 5904 5903 5902 5901 5902 5899 5897 5897 5897 5895 5896 5898 5896 5895 5893 5891 5892 5888 5884 5883 5885 5885 5886 5888 5889 5891 5893 5895 5898 5900 5902 5903 5904 5907 5910 5912 5914 5916 5919 5921 5923 5926 5928 5931 5935
5908 5907 5906 5904 5903 5902 5902 5901 5900 5899 5898 5896 5895 5895 5898 5897 5897 5895 5895 5892 5894 5893 5890 5888 5886 5888 5887 5888 5890 5892 5894 5895 5897 5900 5902 5903 5905 5907 5909 5912 5914 5916 5917 5920 5922 5925 5927 5929 5933
5908 5906 5906 5904 5902 5901 5899 5900 5900 5898 5897 5896 5895 5895 5897 5898 5898 5896 5896 5895 5894 5896 5893 5892 5890 5889 5889 5889 5890 5891 5893 5895 5897 5898 5900 5903 5904 5906 5908 5910 5912 5915 5917 5920 5922 5923 5926 5928 5931
5907 5905 5905 5904 5902 5900 5900 5898 5897 5896 5896 5895 5894 5895 5896 5897 5897 5896 5895 5895 5894 5895 5894 5894 5893 5893 5891 5891 5891 5893 5893 5894 5895 5897 5899 5900 5902 5904 5906 5909 5911 5913 5915 5918 5921 5923 5925 5926 5929
5904 5903 5902 5901 5900 5898 5897 5896 5896 5895 5894 5893 5893 5894 5895 5894 5896 5895 5894 5893 5895 5894 5894 5894 5893 5894 5893 5892 5892 5892 5893 5892 5893 5895 5897 5899 5899 5901 5903 5906 5908 5911 5914 5917 5919 5921 5923 5925 5926
5900 5900 5899 5899 5897 5896 5895 5892 5891 5893 5892 5891 5891 5893 5894 5894 5894 5894 5892 5892 5892 5893 5894 5894 5894 5893 5894 5893 5892 5891 5890 5891 5892 5893 5893 5895 5897 5899 5900 5903 5906 5909 5910 5913 5915 5918 5920 5922 5923
5898 5896 5896 5895 5894 5893 5894 5890 5885 5886 5890 5892 5891 5891 5893 5891 5892 5892 5891 5889 5890 5890 5893 5893 5893 5894 5893 5894 5893 5891 5890 5890 5890 5890 5889 5890 5892 5894 5897 5900 5903 5905 5907 5909 5912 5914 5916 5917 5919
5895 5894 5893 5893 5892 5889 5888 5887 5887 5886 5884 5887 5889 5888 5889 5888 5889 5888 5887 5886 5884 5885 5888 5893 5893 5892 5893 5892 5892 5893 5892 5890 5890 5889 5888 5889 5888 5890 5893 5896 5900 5902 5904 5906 5908 5910 5912 5914 5916
5892 5891 5890 5890 5889 5887 5885 5885 5883 5884 5884 5883 5882 5884 5882 5883 5886 5886 5886 5881 5886 5889 5887 5888 5891 5891 5890 5891 5890 5892 5892 5891 5890 5889 5888 5888 5888 5888 5891 5893 5895 5898 5899 5902 5904 5905 5907 5909 5912
5889 5887 5887 5887 5886 5884 5882 5884 5882 5880 5879 5879 5878 5877 5878 5877 5879 5881 5881 5881 5881 5883 5884 5885 5884 5886 5887 5887 5888 5888 5889 5890 5890 5888 5888 5887 5887 5888 5889 5890 5892 5894 5895 5896 5898 5900 5902 5904 5907
5886 5885 5883 5883 5882 5881 5879 5879 5880 5877 5876 5875 5873 5872 5871 5871 5872 5875 5876 5875 5875 5878 5880 5878 5879 5880 5882 5882 5883 5885 5885 5887 5888 5887 5886 5887 5886 5887 5887 5887 5888 5889 5891 5892 5894 5895 5897 5899 5901
5882 5881 5880 5880 5879 5878 5877 5877 5874 5873 5873 5871 5869 5868 5868 5867 5868 5868 5870 5870 5870 5873 5873 5875 5875 5877 5878 5878 5879 5880 5881 5882 5884 5884 5885 5885 5886 5886 5886 5886 5886 5885 5886 5887 5888 5891 5891 5893 5894
5879 5877 5876 5876 5876 5875 5872 5872 5871 5869 5868 5867 5865 5863 5862 5861 5862 5862 5863 5863 5862 5862 5866 5867 5869 5870 5872 5874 5875 5876 5876 5878 5879 5881 5882 5883 5884 5884 5885 5885 5884 5884 5884 5884 5885 5885 5886 5887 5888
5875 5874 5871 5870 5870 5870 5867 5866 5867 5864 5863 5861 5860 5858 5857 5857 5856 5854 5854 5853 5853 5854 5855 5856 5859 5862 5864 5866 5868 5871 5872 5873 5875 5877 5879 5881 5881 5882 5883 5884 5883 5883 5882 5882 5881 5881 5881 5882 5882
5869 5867 5864 5863 5862 5863 5860 5859 5859 5858 5857 5855 5854 5851 5850 5850 5848 5847 5845 5844 5843 5843 5843 5846 5848 5851 5854 5856 5859 5863 5865 5867 5870 5872 5873 5874 5878 5878 5879 5880 5880 5880 5879 5879 5879 5877 5875 5874 5875
5863 5862 5859 5855 5857 5857 5855 5853 5852 5850 5848 5847 5846 5845 5843 5842 5840 5838 5837 5834 5833 5833 5833 5834 5835 5838 5841 5842 5847 5851 5855 5859 5864 5867 5867 5869 5871 5873 5873 5876 5877 5877 5877 5877 5876 5875 5872 5869 5867
5858 5856 5854 5850 5849 5849 5847 5845 5844 5842 5841 5840 5838 5837 5834 5831 5829 5827 5825 5824 5823 5821 5821 5821 5823 5825 5827 5831 5836 5840 5845 5852 5856 5859 5861 5863 5864 5866 5869 5870 5873 5874 5875 5875 5874 5872 5870 5865 5861
5852 5849 5846 5843 5840 5838 5836 5836 5836 5834 5832 5831 5830 5827 5825 5820 5819 5817 5815 5813 5812 5810 5809 5811 5811 5809 5811 5816 5823 5829 5834 5841 5846 5849 5853 5857 5858 5860 5862 5864 5865 5869 5871 5871 5870 5869 5867 5865 5862
5844 5841 5840 5838 5835 5831 5829 5829 5830 5827 5825 5824 5822 5818 5815 5811 5808 5806 5805 5801 5801 5799 5799 5801 5801 5797 5796 5802 5808 5817 5823 5829 5835 5842 5846 5849 5851 5853 5856 5858 5859 5862 5865 5866 5867 5865 5865 5864 5861
5837 5835 5833 5831 5827 5824 5821 5820 5821 5817 5815 5813 5813 5808 5805 5803 5799 5795 5793 5792 5790 5789 5788 5790 5790 5789 5787 5790 5795 5803 5810 5817 5824 5832 5836 5840 5842 5846 5849 5850 5853 5854 5856 5860 5862 5863 5862 5862 5861